Regional Weather Roundup
Issued by NWS Green Bay, WI

Home | Current Version | Previous Version | Text Only | Print | Product List | Glossary On
Versions: 1 2 3 4 5 6 7 8 9 10 11 12 13 14 15 16 17 18 19 20 21 22 23 24 25 26 27 28 29 30 31 32 33 34 35 36 37 38 39 40 41 42 43 44 45 46 47 48 49 50
000
ASUS43 KGRB 221010
RWRGRB

NORTH-CENTRAL AND NORTHEAST WISCONSIN REGIONAL WEATHER ROUNDUP
NATIONAL WEATHER SERVICE GREEN BAY WI
500 AM CDT FRI AUG 22 2014

WIZ005-009-010>012-018-019-221100-
NORTH CENTRAL WISCONSIN

CITY           SKY/WX    TMP DP  RH WIND       PRES   REMARKS
IRONWOOD       CLOUDY    66  64  94 E3        29.90R
MANITOWISH WTR CLOUDY    63  63 100 CALM      29.94R FOG
ARBOR VITAE    CLOUDY    64  62  91 SE5       29.94R FOG
EAGLE RIVER    CLOUDY    63  63 100 E5        29.95R FOG
LAND O LAKES   CLOUDY    64  63  98 CALM      29.96R
RHINELANDER    FOG       63  63 100 E7        29.95R VSB 1/2
PHILLIPS       CLOUDY    65  65  99 CALM      29.92R FOG
ANTIGO         FOG       63  63 100 SE5       29.95R VSB 1/2
TOMAHAWK       FOG       64  63  96 CALM      29.94R VSB 1/2
MERRILL        FOG       65  65 100 CALM      29.93R VSB 1/2
$$

WIZ013-073-221100-
NORTHEAST WISCONSIN

CITY           SKY/WX    TMP DP  RH WIND       PRES   REMARKS
IRON MOUNTAIN  CLOUDY    64  61  90 CALM      29.94R
MARINETTE      CLOUDY    66  63  88 CALM      29.92R
OCONTO         CLOUDY    66  66 100 CALM      29.92R
$$

WIZ017-030-035>037-045-221100-
CENTRAL WISCONSIN

CITY           SKY/WX    TMP DP  RH WIND       PRES   REMARKS
MEDFORD        FOG       65  65 100 SE5       29.92R VSB 1/2
WAUSAU         FOG       65  65 100 E5        29.91R VSB 1/4
MOSINEE        FOG       64  64 100 CALM      29.93R VSB 1/4
MARSHFIELD     FOG       70  68  93 SE3       29.92R VSB 1/4
WISC RAPIDS    CLOUDY    70  70 100 SE5       29.92R FOG
STEVENS POINT  FOG       65  65 100 CALM      29.93R VSB 1/4
WAUPACA        FOG       71  69  95 CALM      29.92R VSB 1/4
SHAWANO        CLOUDY    67  65  93 E3        29.93R FOG
CLINTONVILLE   FOG       64  64 100 CALM      29.92R VSB 1/4
$$

WIZ038-039-048-051-221100-
FOX VALLEY

CITY           SKY/WX    TMP DP  RH WIND       PRES   REMARKS
NWS GREEN BAY  CLOUDY    66  66 100 CALM      29.92R FOG
APPLETON       CLOUDY    66  64  94 E5        29.92R FOG
OSHKOSH        CLOUDY    70  69  97 S9        29.92R FOG
FOND DU LAC    CLOUDY    69  67  93 S6        29.93R
$$

WIZ022-050-052-221100-
EAST CENTRAL WISCONSIN

CITY           SKY/WX    TMP DP  RH WIND       PRES   REMARKS
STURGEON BAY   CLOUDY    66  63  88 SE5       29.93R
MANITOWOC      CLOUDY    66  65  96 SE3       29.93R FOG
SHEBOYGAN      FOG       67  66  97 CALM      29.93R VSB 1/4
$$

LMZ563-521-522-541>543-221100-
LAKESHORE

STATION/POSITION TIME  TEMP    WIND        PRES    VSBY  WAVE
                       AIR SEA DIR/SP/G                  HT/PER
                 (UTC) (F)     (DEG/KT/KT) (MB)    (MI)  (FT/S)
SHEBOYGAN LKSHOR 1000   67 65  170/  3/  4 1013.5R
KEWAUNEE LKSHORE 1000   66     120/  1/  2 1012.1R
NORTHPORT PIER   1000   65     150/  3/  4 1013.2F
N MID LAKE BUOY  1000   65 64  120/  6/  8 1012.8F         0
S GREEN BAY BUOY 1000   68     VRB  8      1014.2R
SISTER BAY LKSHO 0900   65      CALM  /  3   N/A
CHAMBERS ISLAND  1000   66      50/  5/  6 1013.5S
MENOMINEE LKSHOR 1000   67      40/  6/  7 1013.5S
$$


USA.gov is the U.S. government's official web portal to all federal, state and local government web resources and services.